Location: Newark
(50.8547°N, 2.7256°E)
Time: 11:21:57
(UTC+00:00)

Envisat - Pass Details

Date: 25 January 2020
Orbit: 764 x 766 km, 98.1° (Epoch: 25 February)

Event Time Altitude Azimuth Distance (km) Brightness Sun altitude
Rises 17:29:01 0° 166° (SSE) 3,222 6.3 -9.7°
Reaches altitude 10° 17:31:18 10° 167° (SSE) 2,300 5.5 -10.0°
Maximum altitude 17:36:23 84° 254° (WSW) 778 3.1 -10.8°
Drops below altitude 10° 17:41:31 10° 345° (NNW) 2,317 5.5 -11.6°
Sets 17:43:50 0° 346° (NNW) 3,247 6.2 -11.9°
